,,Stat6,,Stat2,,Stat8,,Stat9,,Stat10,,Wind1,,Wind1,
time,status,PA1M_AVG,status,PR1M_SUM,status,RH1M_AVG,status,SR1M_AVG,status,TA1M_AVG,status,W1dAve1m,status,W1sAve1m,
2004-08-16, 00:00:00,VALID,918.189,VALID,0,VALID,99.7866,VALID,0.0339617,VALID,19.8801,VALID,222,VALID,0.507813,
2004-08-16, 00:01:00,VALID,918.189,VALID,0,VALID,99.8362,VALID,0,VALID,19.8575,VALID,234,VALID,0.662024,
2004-08-16, 00:02:00,VALID,918.193,VALID,0,VALID,99.9303,VALID,0.0169808,VALID,19.8644,VALID,239,VALID,0.917188,
2004-08-16, 00:03:00,VALID,918.188,VALID,0,VALID,99.999,VALID,0.0169808,VALID,19.8771,VALID,226,VALID,0.512074,
2004-08-16, 00:04:00,VALID,918.187,VALID,0,VALID,100,VALID,0.0169808,VALID,19.8771,VALID,242,VALID,0.518821,
2004-08-16, 00:05:00,VALID,918.197,VALID,0,VALID,100,VALID,0.0169808,VALID,19.8771,VALID,240,VALID,0.307351,
2004-08-16, 00:06:00,VALID,918.193,VALID,0,VALID,100,VALID,0,VALID,19.8803,VALID,240,VALID,0.0167151,
2004-08-16, 00:07:00,VALID,918.2,VALID,0,VALID,99.9692,VALID,0.0339617,VALID,19.8507,VALID,309,VALID,0.288318,
2004-08-16, 00:08:00,VALID,918.196,VALID,0,VALID,99.9011,VALID,0.0169808,VALID,19.8254,VALID,324,VALID,0.184642,
2004-08-16, 00:09:00,VALID,918.186,VALID,0,VALID,99.8731,VALID,-0.0169808,VALID,19.813,VALID,325,VALID,0.180804,
2004-08-16, 00:10:00,VALID,918.174,VALID,0,VALID,99.8642,VALID,-0.0169808,VALID,19.8103,VALID,326,VALID,0.0359375,
2004-08-16, 00:11:00,VALID,918.156,VALID,0,VALID,99.8604,VALID,0,VALID,19.8001,VALID,326,VALID,0.00106534,
2004-08-16, 00:12:00,VALID,918.161,VALID,0,VALID,99.8871,VALID,0,VALID,19.8162,VALID,324,VALID,0.124428,
2004-08-16, 00:13:00,VALID,918.141,VALID,0,VALID,99.9746,VALID,0,VALID,19.8286,VALID,296,VALID,0.352706,
2004-08-16, 00:14:00,VALID,918.118,VALID,0,VALID,99.999,VALID,0,VALID,19.8647,VALID,250,VALID,0.541146,
2004-08-16, 00:15:00,VALID,918.078,VALID,0,VALID,100,VALID,0,VALID,19.8644,VALID,246,VALID,0.577939,
2004-08-16, 00:16:00,VALID,918.031,VALID,0,VALID,100,VALID,0.0169808,VALID,19.8609,VALID,229,VALID,0.727493,
2004-08-16, 00:17:00,VALID,917.989,VALID,0,VALID,100,VALID,-0.0169808,VALID,19.8704,VALID,228,VALID,0.527253,
2004-08-16, 00:18:00,VALID,917.957,VALID,0,VALID,100,VALID,0,VALID,19.8835,VALID,233,VALID,0.0706759,
2004-08-16, 00:19:00,VALID,917.945,VALID,0,VALID,100,VALID,0.0169808,VALID,19.8773,VALID,255,VALID,0.188643,
2004-08-16, 00:20:00,VALID,917.954,VALID,0,VALID,99.91,VALID,0.0169808,VALID,19.8413,VALID,328,VALID,0.389898,
2004-08-16, 00:21:00,VALID,917.968,VALID,0,VALID,99.8108,VALID,0.0339617,VALID,19.8192,VALID,328,VALID,0.304688,
2004-08-16, 00:22:00,VALID,917.987,VALID,0,VALID,99.6366,VALID,0,VALID,19.778,VALID,334,VALID,0.462798,
2004-08-16, 00:23:00,VALID,918.003,VALID,0,VALID,99.5921,VALID,0,VALID,19.742,VALID,348,VALID,0.457127,
2004-08-16, 00:24:00,VALID,918.003,VALID,0,VALID,99.6137,VALID,-0.0849042,VALID,19.7179,VALID,349,VALID,0.19122,
2004-08-16, 00:25:00,VALID,917.989,VALID,0,VALID,99.6658,VALID,-0.101885,VALID,19.7112,VALID,349,VALID,0.523947,
2004-08-16, 00:26:00,VALID,917.978,VALID,0,VALID,99.7002,VALID,-0.101885,VALID,19.7047,VALID,358,VALID,0.816051,
2004-08-16, 00:27:00,VALID,917.981,VALID,0,VALID,99.7141,VALID,-0.118866,VALID,19.6982,VALID,5,VALID,0.707589,
2004-08-16, 00:28:00,VALID,917.968,VALID,0,VALID,99.7472,VALID,-0.101885,VALID,19.6948,VALID,8,VALID,0.477805,
2004-08-16, 00:29:00,VALID,917.96,VALID,0,VALID,99.8108,VALID,-0.118866,VALID,19.7243,VALID,352,VALID,0.236555,
2004-08-16, 00:30:00,VALID,917.934,VALID,0,VALID,99.8171,VALID,-0.101885,VALID,19.7278,VALID,349,VALID,0.0424924,
2004-08-16, 00:31:00,VALID,917.924,VALID,0,VALID,99.8032,VALID,-0.101885,VALID,19.737,VALID,297,VALID,0.301525,
2004-08-16, 00:32:00,VALID,917.903,VALID,0,VALID,99.7777,VALID,-0.101885,VALID,19.7464,VALID,270,VALID,0.345203,
2004-08-16, 00:33:00,VALID,917.869,VALID,0,VALID,99.7777,VALID,-0.118866,VALID,19.7596,VALID,239,VALID,0.51399,
2004-08-16, 00:34:00,VALID,917.847,VALID,0,VALID,99.7675,VALID,-0.101885,VALID,19.7656,VALID,226,VALID,0.525915,
2004-08-16, 00:35:00,VALID,917.837,VALID,0,VALID,99.7599,VALID,-0.101885,VALID,19.7725,VALID,217,VALID,0.366443,
2004-08-16, 00:36:00,VALID,917.84,VALID,0,VALID,99.7281,VALID,-0.118866,VALID,19.7594,VALID,237,VALID,0.328852,
2004-08-16, 00:37:00,VALID,917.843,VALID,0,VALID,99.7256,VALID,-0.0679233,VALID,19.7534,VALID,238,VALID,0.160156,
2004-08-16, 00:38:00,VALID,917.843,VALID,0,VALID,99.6531,VALID,-0.118866,VALID,19.7268,VALID,250,VALID,0.340661,
2004-08-16, 00:39:00,VALID,917.857,VALID,0,VALID,99.5501,VALID,0,VALID,19.7062,VALID,251,VALID,0.307958,
2004-08-16, 00:40:00,VALID,917.856,VALID,0,VALID,99.456,VALID,0,VALID,19.6906,VALID,324,VALID,0.445668,
2004-08-16, 00:41:00,VALID,917.871,VALID,0,VALID,99.4408,VALID,0,VALID,19.6675,VALID,345,VALID,0.0317708,
2004-08-16, 00:42:00,VALID,917.882,VALID,0,VALID,99.3823,VALID,-0.0169808,VALID,19.6712,VALID,345,VALID,0,
2004-08-16, 00:43:00,VALID,917.884,VALID,0,VALID,99.2691,VALID,0,VALID,19.629,VALID,345,VALID,0.0243459,
2004-08-16, 00:44:00,VALID,917.86,VALID,0,VALID,99.2513,VALID,-0.0169808,VALID,19.6061,VALID,345,VALID,0.400436,
2004-08-16, 00:45:00,VALID,917.827,VALID,0,VALID,99.2182,VALID,-0.0339617,VALID,19.587,VALID,347,VALID,0.646577,
2004-08-16, 00:46:00,VALID,917.782,VALID,0,VALID,99.1254,VALID,0,VALID,19.5482,VALID,355,VALID,0.66684,
2004-08-16, 00:47:00,VALID,917.775,VALID,0,VALID,99.2106,VALID,-0.0169808,VALID,19.5386,VALID,359,VALID,0.782885,
2004-08-16, 00:48:00,VALID,917.766,VALID,0,VALID,99.2716,VALID,-0.0169808,VALID,19.5388,VALID,3,VALID,1.01674,
2004-08-16, 00:49:00,VALID,917.755,VALID,0,VALID,99.4077,VALID,0,VALID,19.5323,VALID,12,VALID,1.20259,
2004-08-16, 00:50:00,VALID,917.737,VALID,0,VALID,99.6798,VALID,0,VALID,19.5681,VALID,13,VALID,0.881288,
2004-08-16, 00:51:00,VALID,917.735,VALID,0,VALID,99.7256,VALID,0,VALID,19.6004,VALID,12,VALID,1.30859,
2004-08-16, 00:52:00,VALID,917.737,VALID,0,VALID,99.7815,VALID,-0.0169808,VALID,19.6198,VALID,350,VALID,0.961115,
2004-08-16, 00:53:00,VALID,917.74,VALID,0,VALID,99.8273,VALID,0,VALID,19.6257,VALID,355,VALID,0.854759,
2004-08-16, 00:54:00,VALID,917.738,VALID,0,VALID,99.8769,VALID,-0.0169808,VALID,19.6389,VALID,11,VALID,0.812691,
2004-08-16, 00:55:00,VALID,917.727,VALID,0,VALID,99.9341,VALID,0,VALID,19.6483,VALID,10,VALID,0.848214,
2004-08-16, 00:56:00,VALID,917.708,VALID,0,VALID,99.987,VALID,-0.0169808,VALID,19.6516,VALID,20,VALID,1.09546,
2004-08-16, 00:57:00,VALID,917.696,VALID,0,VALID,100,VALID,0,VALID,19.6809,VALID,17,VALID,1.00981,
2004-08-16, 00:58:00,VALID,917.699,VALID,0,VALID,99.9944,VALID,0.0169808,VALID,19.6873,VALID,21,VALID,1.03834,
2004-08-16, 00:59:00,VALID,917.709,VALID,0,VALID,99.9863,VALID,0,VALID,19.6774,VALID,15,VALID,0.785156,
2004-08-16, 01:00:00,VALID,917.721,VALID,0,VALID,99.9685,VALID,-0.0339617,VALID,19.6903,VALID,18,VALID,0.969151,
2004-08-16, 01:01:00,VALID,917.736,VALID,0,VALID,99.9227,VALID,0,VALID,19.6809,VALID,18,VALID,1.24346,
2004-08-16, 01:02:00,VALID,917.74,VALID,0,VALID,99.8909,VALID,-0.0339617,VALID,19.6878,VALID,21,VALID,1.05096,
2004-08-16, 01:03:00,VALID,917.743,VALID,0,VALID,99.8833,VALID,-0.0169808,VALID,19.6906,VALID,24,VALID,1.09258,
2004-08-16, 01:04:00,VALID,917.753,VALID,0,VALID,99.8451,VALID,-0.0339617,VALID,19.6973,VALID,17,VALID,1.00019,
2004-08-16, 01:05:00,VALID,917.739,VALID,0,VALID,99.7078,VALID,0,VALID,19.6809,VALID,355,VALID,1.04124,
2004-08-16, 01:06:00,VALID,917.769,VALID,0,VALID,99.6188,VALID,0,VALID,19.6838,VALID,20,VALID,1.02877,
2004-08-16, 01:07:00,VALID,917.769,VALID,0,VALID,99.5323,VALID,0,VALID,19.6811,VALID,360,VALID,0.858842,
2004-08-16, 01:08:00,VALID,917.782,VALID,0,VALID,99.5183,VALID,0,VALID,19.704,VALID,1,VALID,0.728659,
2004-08-16, 01:09:00,VALID,917.799,VALID,0,VALID,99.456,VALID,0.0169808,VALID,19.6995,VALID,17,VALID,0.787016,
2004-08-16, 01:10:00,VALID,917.804,VALID,0,VALID,99.4776,VALID,0.0339617,VALID,19.7218,VALID,14,VALID,0.984003,
2004-08-16, 01:11:00,VALID,917.813,VALID,0,VALID,99.4954,VALID,0.0509425,VALID,19.7447,VALID,7,VALID,0.740327,
2004-08-16, 01:12:00,VALID,917.815,VALID,0,VALID,99.4293,VALID,0.0679233,VALID,19.7472,VALID,14,VALID,0.742374,
2004-08-16, 01:13:00,VALID,917.802,VALID,0,VALID,99.4026,VALID,0.0509425,VALID,19.7571,VALID,17,VALID,0.757994,
2004-08-16, 01:14:00,VALID,917.765,VALID,0,VALID,99.3174,VALID,0,VALID,19.7708,VALID,9,VALID,0.726563,
2004-08-16, 01:15:00,VALID,917.729,VALID,0,VALID,99.3339,VALID,0.0169808,VALID,19.7735,VALID,25,VALID,0.958212,
2004-08-16, 01:16:00,VALID,917.691,VALID,0,VALID,99.3199,VALID,0.0169808,VALID,19.7931,VALID,17,VALID,0.736281,
2004-08-16, 01:17:00,VALID,917.66,VALID,0,VALID,99.2564,VALID,0.0339617,VALID,19.8031,VALID,360,VALID,0.33125,
2004-08-16, 01:18:00,VALID,917.622,VALID,0,VALID,99.2106,VALID,0,VALID,19.8031,VALID,358,VALID,0.0234375,
2004-08-16, 01:19:00,VALID,917.569,VALID,0,VALID,99.1788,VALID,0.0169808,VALID,19.8152,VALID,358,VALID,0.0335582,
2004-08-16, 01:20:00,VALID,917.542,VALID,0,VALID,99.1089,VALID,0.0509425,VALID,19.819,VALID,358,VALID,0.0529297,
2004-08-16, 01:21:00,VALID,917.536,VALID,0,VALID,99.0618,VALID,0.0169808,VALID,19.8319,VALID,358,VALID,0,
2004-08-16, 01:22:00,VALID,917.535,VALID,0,VALID,99.0198,VALID,0.0339617,VALID,19.8281,VALID,358,VALID,0.103849,
2004-08-16, 01:23:00,VALID,917.524,VALID,0,VALID,99.0466,VALID,0.0679233,VALID,19.8448,VALID,358,VALID,0.0634084,
2004-08-16, 01:24:00,VALID,917.521,VALID,0,VALID,99.0707,VALID,-0.0849042,VALID,19.8391,VALID,358,VALID,0.189862,
2004-08-16, 01:25:00,VALID,917.508,VALID,0,VALID,99.0605,VALID,-0.0679233,VALID,19.8525,VALID,10,VALID,0.62609,
2004-08-16, 01:26:00,VALID,917.477,VALID,0,VALID,99.0402,VALID,-0.0849042,VALID,19.8721,VALID,20,VALID,0.953711,
2004-08-16, 01:27:00,VALID,917.442,VALID,0,VALID,98.9448,VALID,-0.0509425,VALID,19.8582,VALID,19,VALID,0.900534,
2004-08-16, 01:28:00,VALID,917.408,VALID,0,VALID,98.9156,VALID,-0.0339617,VALID,19.8649,VALID,16,VALID,0.3367,
2004-08-16, 01:29:00,VALID,917.4,VALID,0,VALID,98.8838,VALID,-0.0679233,VALID,19.885,VALID,16,VALID,0.27484,
2004-08-16, 01:30:00,VALID,917.383,VALID,0,VALID,98.8291,VALID,-0.0339617,VALID,19.8741,VALID,16,VALID,0.28418,
2004-08-16, 01:31:00,VALID,917.385,VALID,0,VALID,98.8304,VALID,-0.0509425,VALID,19.9007,VALID,16,VALID,0.27468,
2004-08-16, 01:32:00,VALID,917.376,VALID,0,VALID,98.7973,VALID,-0.0339617,VALID,19.9009,VALID,16,VALID,0.322569,
2004-08-16, 01:33:00,VALID,917.379,VALID,0,VALID,98.7134,VALID,-0.0679233,VALID,19.9104,VALID,13,VALID,0.488477,
2004-08-16, 01:34:00,VALID,917.395,VALID,0,VALID,98.5697,VALID,-0.0509425,VALID,19.8875,VALID,333,VALID,0.703125,
2004-08-16, 01:35:00,VALID,917.393,VALID,0,VALID,98.6409,VALID,-0.0509425,VALID,19.9076,VALID,349,VALID,0.446948,
2004-08-16, 01:36:00,VALID,917.393,VALID,0,VALID,98.5392,VALID,-0.0509425,VALID,19.9171,VALID,358,VALID,0.461483,
2004-08-16, 01:37:00,VALID,917.396,VALID,0,VALID,98.5608,VALID,-0.0849042,VALID,19.9106,VALID,358,VALID,0.519354,
2004-08-16, 01:38:00,VALID,917.382,VALID,0,VALID,98.543,VALID,-0.0679233,VALID,19.9069,VALID,358,VALID,0.620313,
2004-08-16, 01:39:00,VALID,917.38,VALID,0,VALID,98.4553,VALID,0,VALID,19.8897,VALID,1,VALID,0.82848,
2004-08-16, 01:40:00,VALID,917.359,VALID,0,VALID,98.4998,VALID,0.0169808,VALID,19.8798,VALID,9,VALID,1.03445,
2004-08-16, 01:41:00,VALID,917.352,VALID,0,VALID,98.557,VALID,0.0679233,VALID,19.8602,VALID,2,VALID,0.891319,
2004-08-16, 01:42:00,VALID,917.331,VALID,0,VALID,98.5939,VALID,0.0339617,VALID,19.8413,VALID,356,VALID,0.96076,
2004-08-16, 01:43:00,VALID,917.295,VALID,0,VALID,98.693,VALID,0.0509425,VALID,19.8155,VALID,13,VALID,0.89234,
2004-08-16, 01:44:00,VALID,917.273,VALID,0,VALID,98.8062,VALID,0,VALID,19.7988,VALID,2,VALID,0.915516,
2004-08-16, 01:45:00,VALID,917.23,VALID,0,VALID,98.8151,VALID,0,VALID,19.7892,VALID,357,VALID,0.870094,
2004-08-16, 01:46:00,VALID,917.215,VALID,0,VALID,98.8774,VALID,0,VALID,19.7797,VALID,356,VALID,0.715116,
2004-08-16, 01:47:00,VALID,917.214,VALID,0,VALID,98.9219,VALID,0.0339617,VALID,19.7571,VALID,349,VALID,0.51726,
2004-08-16, 01:48:00,VALID,917.218,VALID,0,VALID,98.9753,VALID,0.0679233,VALID,19.7574,VALID,355,VALID,0.497582,
2004-08-16, 01:49:00,VALID,917.219,VALID,0,VALID,98.9486,VALID,0.0339617,VALID,19.7412,VALID,333,VALID,0.659108,
2004-08-16, 01:50:00,VALID,917.216,VALID,0,VALID,98.9715,VALID,0.0509425,VALID,19.7079,VALID,352,VALID,0.747142,
2004-08-16, 01:51:00,VALID,917.206,VALID,0,VALID,99.0071,VALID,0.0679233,VALID,19.7022,VALID,20,VALID,0.98492,
2004-08-16, 01:52:00,VALID,917.19,VALID,0,VALID,99.0491,VALID,0.0679233,VALID,19.6824,VALID,11,VALID,0.956936,
2004-08-16, 01:53:00,VALID,917.183,VALID,0,VALID,99.0478,VALID,0.0509425,VALID,19.6732,VALID,10,VALID,0.709077,
2004-08-16, 01:54:00,VALID,917.172,VALID,0,VALID,99.0491,VALID,-0.0509425,VALID,19.665,VALID,15,VALID,0.715298,
2004-08-16, 01:55:00,VALID,917.141,VALID,0,VALID,99.0313,VALID,-0.0509425,VALID,19.6362,VALID,8,VALID,0.906977,
2004-08-16, 01:56:00,VALID,917.125,VALID,0,VALID,99.0847,VALID,-0.0509425,VALID,19.6232,VALID,6,VALID,0.383721,
2004-08-16, 01:57:00,VALID,917.082,VALID,0,VALID,99.147,VALID,-0.0339617,VALID,19.5932,VALID,6,VALID,0.421512,
2004-08-16, 01:58:00,VALID,917.051,VALID,0,VALID,99.1979,VALID,-0.0339617,VALID,19.5939,VALID,359,VALID,0.575977,
2004-08-16, 01:59:00,VALID,917.027,VALID,0,VALID,99.1152,VALID,-0.0339617,VALID,19.5577,VALID,353,VALID,0.537972,
2004-08-16, 02:00:00,VALID,917.001,VALID,0,VALID,99.1368,VALID,-0.0509425,VALID,19.5522,VALID,352,VALID,0.658736,
2004-08-16, 02:01:00,VALID,916.978,VALID,0,VALID,99.1839,VALID,-0.0509425,VALID,19.5453,VALID,347,VALID,0.698509,
2004-08-16, 02:02:00,VALID,916.947,VALID,0,VALID,99.2462,VALID,-0.0509425,VALID,19.5457,VALID,350,VALID,0.482376,
2004-08-16, 02:03:00,VALID,916.927,VALID,0,VALID,99.3021,VALID,-0.0849042,VALID,19.5455,VALID,1,VALID,0.650298,
2004-08-16, 02:04:00,VALID,916.925,VALID,0,VALID,99.2983,VALID,-0.0849042,VALID,19.5681,VALID,3,VALID,0.687847,
2004-08-16, 02:05:00,VALID,916.933,VALID,0,VALID,99.2487,VALID,-0.0849042,VALID,19.5746,VALID,3,VALID,0.594965,
2004-08-16, 02:06:00,VALID,916.937,VALID,0,VALID,99.2144,VALID,-0.0169808,VALID,19.5778,VALID,3,VALID,0.545277,
2004-08-16, 02:07:00,VALID,916.947,VALID,0,VALID,99.1902,VALID,-0.0339617,VALID,19.5977,VALID,4,VALID,0.544471,
2004-08-16, 02:08:00,VALID,916.952,VALID,0,VALID,99.1966,VALID,-0.0339617,VALID,19.6069,VALID,4,VALID,0.350852,
2004-08-16, 02:09:00,VALID,916.94,VALID,0,VALID,99.1674,VALID,-0.0849042,VALID,19.627,VALID,4,VALID,0.483285,
2004-08-16, 02:10:00,VALID,916.91,VALID,0,VALID,99.0682,VALID,-0.0679233,VALID,19.6297,VALID,7,VALID,0.355859,
2004-08-16, 02:11:00,VALID,916.882,VALID,0,VALID,99.0224,VALID,-0.0849042,VALID,19.6558,VALID,7,VALID,0.415625,
2004-08-16, 02:12:00,VALID,916.844,VALID,0,VALID,98.9245,VALID,-0.0679233,VALID,19.6588,VALID,7,VALID,0.538281,
2004-08-16, 02:13:00,VALID,916.836,VALID,0,VALID,98.7999,VALID,-0.0169808,VALID,19.6622,VALID,7,VALID,0.586128,
2004-08-16, 02:14:00,VALID,916.823,VALID,0,VALID,98.6956,VALID,-0.0849042,VALID,19.6622,VALID,7,VALID,0.259766,
2004-08-16, 02:15:00,VALID,916.815,VALID,0,VALID,98.6816,VALID,-0.0849042,VALID,19.6588,VALID,7,VALID,0.000952744,
2004-08-16, 02:16:00,VALID,916.824,VALID,0,VALID,98.6536,VALID,-0.101885,VALID,19.666,VALID,7,VALID,0.2371,
2004-08-16, 02:17:00,VALID,916.82,VALID,0,VALID,98.5862,VALID,-0.0849042,VALID,19.6553,VALID,7,VALID,0.27798,
2004-08-16, 02:18:00,VALID,916.834,VALID,0,VALID,98.5036,VALID,-0.0679233,VALID,19.6553,VALID,6,VALID,0.293857,
2004-08-16, 02:19:00,VALID,916.828,VALID,0,VALID,98.4006,VALID,-0.0679233,VALID,19.6555,VALID,6,VALID,0.176897,
2004-08-16, 02:20:00,VALID,916.812,VALID,0,VALID,98.3383,VALID,-0.0849042,VALID,19.6558,VALID,6,VALID,0,
2004-08-16, 02:21:00,VALID,916.795,VALID,0,VALID,98.3179,VALID,-0.0679233,VALID,19.6493,VALID,6,VALID,0.168679,
2004-08-16, 02:22:00,VALID,916.783,VALID,0,VALID,98.365,VALID,-0.0849042,VALID,19.6498,VALID,6,VALID,0.229687,
2004-08-16, 02:23:00,VALID,916.785,VALID,0,VALID,98.4654,VALID,-0.0849042,VALID,19.6364,VALID,6,VALID,0.233631,
2004-08-16, 02:24:00,VALID,916.81,VALID,0,VALID,98.5544,VALID,-0.0679233,VALID,19.6235,VALID,6,VALID,0.111421,
2004-08-16, 02:25:00,VALID,916.818,VALID,0,VALID,98.5761,VALID,-0.0849042,VALID,19.617,VALID,6,VALID,0,
2004-08-16, 02:26:00,VALID,916.84,VALID,0,VALID,98.5188,VALID,-0.101885,VALID,19.5847,VALID,6,VALID,0,
2004-08-16, 02:27:00,VALID,916.856,VALID,0,VALID,98.365,VALID,-0.101885,VALID,19.5398,VALID,6,VALID,0.250977,
2004-08-16, 02:28:00,VALID,916.886,VALID,0,VALID,98.2149,VALID,-0.0679233,VALID,19.4911,VALID,6,VALID,0.559152,
2004-08-16, 02:29:00,VALID,916.915,VALID,0,VALID,98.0636,VALID,-0.101885,VALID,19.4461,VALID,6,VALID,0.728516,
2004-08-16, 02:30:00,VALID,916.97,VALID,0,VALID,98.1196,VALID,-0.101885,VALID,19.4235,VALID,7,VALID,0.761446,
2004-08-16, 02:31:00,VALID,916.988,VALID,0,VALID,98.2518,VALID,-0.0849042,VALID,19.4104,VALID,7,VALID,0.614329,
2004-08-16, 02:32:00,VALID,917.008,VALID,0,VALID,98.5392,VALID,-0.0339617,VALID,19.4072,VALID,7,VALID,0.645894,
2004-08-16, 02:33:01,VALID,917.012,VALID,0,VALID,98.7083,VALID,-0.0679233,VALID,19.4109,VALID,7,VALID,0.465972,
2004-08-16, 02:34:00,VALID,916.99,VALID,0,VALID,98.5557,VALID,-0.0509425,VALID,19.3716,VALID,7,VALID,0.20653,
2004-08-16, 02:35:00,VALID,916.992,VALID,0,VALID,98.5125,VALID,-0.101885,VALID,19.3331,VALID,7,VALID,0.0131944,
2004-08-16, 02:36:00,VALID,916.98,VALID,0,VALID,98.5989,VALID,-0.0849042,VALID,19.3202,VALID,7,VALID,0,
2004-08-16, 02:37:00,VALID,916.97,VALID,0,VALID,98.8355,VALID,-0.0169808,VALID,19.3237,VALID,7,VALID,0.203658,
2004-08-16, 02:38:00,VALID,916.965,VALID,0,VALID,99.0682,VALID,-0.0679233,VALID,19.3394,VALID,7,VALID,0.14974,
2004-08-16, 02:39:00,VALID,916.943,VALID,0,VALID,99.0733,VALID,0,VALID,19.3545,VALID,7,VALID,0.248935,
2004-08-16, 02:40:00,VALID,916.915,VALID,0,VALID,99.0466,VALID,0.0339617,VALID,19.3386,VALID,7,VALID,0.190278,
2004-08-16, 02:41:01,VALID,916.901,VALID,0,VALID,99.1241,VALID,0,VALID,19.3384,VALID,7,VALID,0.0106534,
2004-08-16, 02:42:00,VALID,916.893,VALID,0,VALID,99.2716,VALID,0,VALID,19.3384,VALID,7,VALID,0,
2004-08-16, 02:43:00,VALID,916.916,VALID,0,VALID,99.3505,VALID,0,VALID,19.3513,VALID,7,VALID,0,
2004-08-16, 02:44:00,VALID,916.922,VALID,0,VALID,99.3034,VALID,0.0169808,VALID,19.3451,VALID,7,VALID,0,
2004-08-16, 02:45:00,VALID,916.94,VALID,0,VALID,99.0084,VALID,0.0169808,VALID,19.283,VALID,7,VALID,0.12066,
2004-08-16, 02:46:01,VALID,916.951,VALID,0,VALID,98.81,VALID,0,VALID,19.2415,VALID,7,VALID,0.505149,
2004-08-16, 02:47:00,VALID,916.967,VALID,0,VALID,98.5939,VALID,0,VALID,19.1735,VALID,17,VALID,0.842634,
2004-08-16, 02:48:00,VALID,917.005,VALID,0,VALID,98.7172,VALID,0,VALID,19.141,VALID,20,VALID,1.17535,
2004-08-16, 02:49:01,VALID,917.039,VALID,0,VALID,98.955,VALID,0.0339617,VALID,19.1377,VALID,20,VALID,1.14648,
2004-08-16, 02:50:00,VALID,917.054,VALID,0,VALID,99.0109,VALID,0.0849042,VALID,19.1283,VALID,20,VALID,1.00651,
2004-08-16, 02:51:00,VALID,917.076,VALID,0,VALID,98.9308,VALID,0.0339617,VALID,19.0928,VALID,19,VALID,0.945139,
2004-08-16, 02:52:01,VALID,917.08,VALID,0,VALID,99.1457,VALID,0.0679233,VALID,19.1027,VALID,19,VALID,0.907227,
2004-08-16, 02:53:00,VALID,917.065,VALID,0,VALID,99.3492,VALID,0.101885,VALID,19.0965,VALID,19,VALID,0.684956,
2004-08-16, 02:54:00,VALID,917.038,VALID,0,VALID,99.4611,VALID,-0.0679233,VALID,19.1007,VALID,19,VALID,0.614347,
2004-08-16, 02:55:00,VALID,917.007,VALID,0,VALID,99.6328,VALID,-0.0679233,VALID,19.1099,VALID,19,VALID,0.700267,
2004-08-16, 02:56:00,VALID,916.984,VALID,0,VALID,99.7459,VALID,0.0679233,VALID,19.1313,VALID,18,VALID,0.752858,
2004-08-16, 02:57:01,VALID,916.975,VALID,0,VALID,99.8362,VALID,0.0339617,VALID,19.1673,VALID,18,VALID,0.625,
2004-08-16, 02:58:00,VALID,916.953,VALID,0,VALID,99.8184,VALID,0.0169808,VALID,19.1675,VALID,22,VALID,0.536932,
2004-08-16, 02:59:00,VALID,916.941,VALID,0,VALID,99.8032,VALID,0.0339617,VALID,19.1641,VALID,22,VALID,0.372142,
2004-08-16, 03:00:00,VALID,916.93,VALID,0,VALID,99.8121,VALID,0.0679233,VALID,19.174,VALID,23,VALID,0.0919922,
2004-08-16, 03:01:00,VALID,916.923,VALID,0,VALID,99.8451,VALID,0.0169808,VALID,19.1807,VALID,23,VALID,0,
2004-08-16, 03:02:00,VALID,916.922,VALID,0,VALID,99.8235,VALID,0.0169808,VALID,19.1839,VALID,23,VALID,0,
2004-08-16, 03:03:00,VALID,916.919,VALID,0,VALID,99.6963,VALID,0.0169808,VALID,19.167,VALID,43,VALID,0.215104,
2004-08-16, 03:04:00,VALID,916.904,VALID,0,VALID,99.6747,VALID,0.0509425,VALID,19.1477,VALID,120,VALID,0.647711,
2004-08-16, 03:05:01,VALID,916.892,VALID,0,VALID,99.6798,VALID,0.0679233,VALID,19.1484,VALID,134,VALID,0.757999,
2004-08-16, 03:06:00,VALID,916.869,VALID,0,VALID,99.6569,VALID,0.0339617,VALID,19.1355,VALID,134,VALID,0.801448,
2004-08-16, 03:07:00,VALID,916.862,VALID,0,VALID,99.7065,VALID,0.0339617,VALID,19.1223,VALID,135,VALID,0.683966,
2004-08-16, 03:08:00,VALID,916.822,VALID,0,VALID,99.7701,VALID,0,VALID,19.1159,VALID,134,VALID,0.71782,
2004-08-16, 03:09:00,VALID,916.783,VALID,0,VALID,99.8718,VALID,0,VALID,19.1256,VALID,122,VALID,0.796181,
2004-08-16, 03:10:01,VALID,916.748,VALID,0,VALID,99.8973,VALID,0,VALID,19.1288,VALID,107,VALID,0.647569,
2004-08-16, 03:11:00,VALID,916.727,VALID,0,VALID,99.8311,VALID,0.0509425,VALID,19.1161,VALID,97,VALID,0.463728,
2004-08-16, 03:12:00,VALID,916.721,VALID,0,VALID,99.793,VALID,0.0339617,VALID,19.1002,VALID,97,VALID,0.418899,
2004-08-16, 03:13:00,VALID,916.698,VALID,0,VALID,99.7879,VALID,0,VALID,19.09,VALID,99,VALID,0.564174,
2004-08-16, 03:14:00,VALID,916.692,VALID,0,VALID,99.7536,VALID,0.0169808,VALID,19.0771,VALID,108,VALID,0.674479,
2004-08-16, 03:15:01,VALID,916.665,VALID,0,VALID,99.8273,VALID,0.0169808,VALID,19.061,VALID,118,VALID,0.9375,
2004-08-16, 03:16:00,VALID,916.651,VALID,0,VALID,99.9087,VALID,0.0339617,VALID,19.0543,VALID,119,VALID,0.873094,
2004-08-16, 03:17:00,VALID,916.636,VALID,0,VALID,99.9443,VALID,0.0169808,VALID,19.0582,VALID,119,VALID,0.877096,
2004-08-16, 03:18:00,VALID,916.62,VALID,0,VALID,100,VALID,0,VALID,19.052,VALID,119,VALID,0.778764,
2004-08-16, 03:19:00,VALID,916.607,VALID,0,VALID,100,VALID,0,VALID,19.0411,VALID,119,VALID,0.694586,
2004-08-16, 03:20:00,VALID,916.6,VALID,0,VALID,100,VALID,0,VALID,19.0352,VALID,119,VALID,0.559766,
2004-08-16, 03:21:01,VALID,916.596,VALID,0,VALID,100,VALID,0,VALID,19.0391,VALID,117,VALID,0.705412,
2004-08-16, 03:22:00,VALID,916.604,VALID,0,VALID,100,VALID,0,VALID,19.0453,VALID,116,VALID,0.923785,
2004-08-16, 03:23:00,VALID,916.609,VALID,0,VALID,100,VALID,0.0169808,VALID,19.0649,VALID,119,VALID,0.762074,
2004-08-16, 03:24:00,VALID,916.627,VALID,0,VALID,100,VALID,0.0169808,VALID,19.0712,VALID,125,VALID,0.361607,
2004-08-16, 03:25:00,VALID,916.644,VALID,0,VALID,100,VALID,0,VALID,19.094,VALID,125,VALID,0.177819,
2004-08-16, 03:26:00,VALID,916.648,VALID,0,VALID,100,VALID,0,VALID,19.0868,VALID,125,VALID,0,
2004-08-16, 03:27:00,VALID,916.631,VALID,0,VALID,100,VALID,0,VALID,19.097,VALID,125,VALID,0.0012718,
2004-08-16, 03:28:00,VALID,916.619,VALID,0,VALID,100,VALID,0,VALID,19.0875,VALID,125,VALID,0,
2004-08-16, 03:29:00,VALID,916.617,VALID,0,VALID,100,VALID,0.0169808,VALID,19.0322,VALID,125,VALID,0,
2004-08-16, 03:30:01,VALID,916.618,VALID,0,VALID,100,VALID,0,VALID,18.9937,VALID,125,VALID,0,
2004-08-16, 03:31:01,VALID,916.623,VALID,0,VALID,99.998,VALID,0.0169808,VALID,18.981,VALID,125,VALID,0,
2004-08-16, 03:32:00,VALID,916.641,VALID,0,VALID,99.9931,VALID,0,VALID,18.9586,VALID,125,VALID,0,
2004-08-16, 03:33:00,VALID,916.668,VALID,0,VALID,99.9977,VALID,0,VALID,18.9485,VALID,126,VALID,0.116097,
2004-08-16, 03:34:00,VALID,916.692,VALID,0,VALID,100,VALID,0.0169808,VALID,18.9582,VALID,147,VALID,0.524528,
2004-08-16, 03:35:01,VALID,916.716,VALID,0,VALID,100,VALID,0.0169808,VALID,18.9778,VALID,168,VALID,0.526677,